Kezdőlap
METAR-TAF:

METAR-TAF

Repülőterek :

Lamoni Municipal Airport

Lamoni, Iowa, Amerikai Egyesült Államok

földrajzi szélesség: 40-37-50N, földrajzi hosszúság: 093-54-03W, magasság: 344 m

Jelenlegi meteorológiai megfigyelések

A jelentés 11 perccel ezelõtt készült, 20:53 UTC
Északi szél 4 kt
Hőmérséklet 21°C
Páratartalom 38%
Légköri nyomás 1024 hPa
Látótávolság: 16.1 km
Derült ég

METAR: KLWD 222053Z AUTO 35004KT 10SM CLR 21/06 A3023 RMK AO2 SLP236 60000 T02110061 56021

Idő: 16:04 (21:04 UTC)


TAF: hiányzik

Meteorológiai megfigyelések és előrejelzések több, mint 4000 repülőtéren (METAR és TAF jelentéseket).

A térképen piros és sárga pontok jelzik az elérhető meteorológiai állomásokat.

Mozgassa az egeret a pont fölött, hogy megjelenjen az állomás neve.

Azután kattintson az időjárási megfigyelések és előrejelzések megtekintéséhez.

A térkép megváltoztatása: kattintson a fekete keresztel jelölt zöld gombra ráközelítéshez, a vonallal jelölt zöld gombra távolításhoz, vagy a zöld nyilakra a szomszédos térképek eléréséhez.


METAR-TAF: